[TLELIST] Archives

 

[TLELIST] Current TLEs

June 10th 2023 PDT

HST 1 20580U 90037B 23160.88680722 .00004405 00000-0 23131-3 0 9993 2 20580 28.4701 316.5812 0002181 307.5876 182.5735 15.13222194620350 ISS (ZARYA) 1 25544U 98067A 23161.05314815 .00013937 00000-0 24614-3 0 9993 2 25544 51.6422 3.8974 0005491 67.8121 67.8666 15.50633390400689 CXO 1 25867U 99040B 23162.66981147 .00000366 00000-0 00000+0 0 9990 2 25867 37.6511 197.6548 9052174 261.6872 0.2226 0.37808725 24315 ...Continue Reading

[TLELIST] Current TLEs

June 9th 2023 PDT

HST 1 20580U 90037B 23159.62594859 .00004557 00000-0 23974-3 0 9991 2 20580 28.4705 324.9700 0002151 292.1444 155.7275 15.13211881620161 ISS (ZARYA) 1 25544U 98067A 23160.39424544 .00014660 00000-0 25863-3 0 9991 2 25544 51.6428 7.1636 0005453 65.5181 349.5815 15.50617471400583 CXO 1 25867U 99040B 23162.66981147 .00000366 00000-0 00000+0 0 9990 2 25867 37.6511 197.6548 9052174 261.6872 0.2226 0.37808725 24315 ...Continue Reading

[TLELIST] Current TLEs

June 9th 2023 PDT

HST 1 20580U 90037B 23159.62594859 .00004557 00000-0 23974-3 0 9991 2 20580 28.4705 324.9700 0002151 292.1444 155.7275 15.13211881620161 ISS (ZARYA) 1 25544U 98067A 23160.39424544 .00014660 00000-0 25863-3 0 9991 2 25544 51.6428 7.1636 0005453 65.5181 349.5815 15.50617471400583 CXO 1 25867U 99040B 23162.66981147 .00000366 00000-0 00000+0 0 9990 2 25867 37.6511 197.6548 9052174 261.6872 0.2226 0.37808725 24315 ...Continue Reading

[TLELIST] Current TLEs

June 8th 2023 PDT

HST 1 20580U 90037B 23159.17831493 .00004520 00000-0 23771-3 0 9994 2 20580 28.4707 327.9479 0002164 286.3656 238.1488 15.13208101620368 ISS (ZARYA) 1 25544U 98067A 23159.12120844 .00013971 00000-0 24718-3 0 9998 2 25544 51.6420 13.4809 0005502 61.7246 82.3957 15.50580383400380 CXO 1 25867U 99040B 23160.03136724 .00000539 00000-0 00000+0 0 9994 2 25867 37.6644 197.9416 9049011 261.4577 0.9826 0.37809021 24307 ...Continue Reading

[TLELIST] Current TLEs

June 7th 2023 PDT

HST 1 20580U 90037B 23157.85354507 .00004337 00000-0 22778-3 0 9995 2 20580 28.4708 336.7611 0002116 269.7013 223.7413 15.13196782619899 ISS (ZARYA) 1 25544U 98067A 23158.35072134 .00015583 00000-0 27496-3 0 9997 2 25544 51.6424 17.2979 0005367 62.0307 98.3520 15.50557904400268 CXO 1 25867U 99040B 23160.03136724 .00000539 00000-0 00000+0 0 9994 2 25867 37.6644 197.9416 9049011 261.4577 0.9826 0.37809021 24307 ...Continue Reading

[TLELIST] Current TLEs

June 6th 2023 PDT

HST 1 20580U 90037B 23156.86360906 .00004066 00000-0 21296-3 0 9998 2 20580 28.4709 343.3467 0002110 257.2482 232.8002 15.13188046619742 ISS (ZARYA) 1 25544U 98067A 23157.43060615 .00013796 00000-0 24468-3 0 9996 2 25544 51.6428 21.8576 0005563 56.4723 4.4645 15.50523323400122 CXO 1 25867U 99040B 23157.38137168 .00000610 00000-0 00000+0 0 9991 2 25867 37.6776 198.2438 9048520 261.2194 0.1201 0.37813818 24294 ...Continue Reading

[TLELIST] Current TLEs

June 5th 2023 PDT

HST 1 20580U 90037B 23155.94297497 .00003968 00000-0 20762-3 0 9997 2 20580 28.4708 349.4712 0002110 245.9110 259.0432 15.13180771619603 ISS (ZARYA) 1 25544U 98067A 23156.38425926 .00012599 00000-0 22444-3 0 9991 2 25544 51.6424 27.0478 0005522 55.0745 281.4638 15.50489937399950 CXO 1 25867U 99040B 23157.38137168 .00000610 00000-0 00000+0 0 9991 2 25867 37.6776 198.2438 9048520 261.2194 0.1201 0.37813818 24294 ...Continue Reading

[TLELIST] Current TLEs

June 4th 2023 PDT

HST 1 20580U 90037B 23154.88373017 .00004199 00000-0 22034-3 0 9993 2 20580 28.4708 356.5176 0002141 232.6843 250.6271 15.13173246619445 ISS (ZARYA) 1 25544U 98067A 23155.18974314 .00014444 00000-0 25633-3 0 9992 2 25544 51.6427 32.9708 0005486 49.5556 95.1385 15.50461945399779 CXO 1 25867U 99040B 23157.38137168 .00000610 00000-0 00000+0 0 9991 2 25867 37.6776 198.2438 9048520 261.2194 0.1201 0.37813818 24294 ...Continue Reading

[TLELIST] Current TLEs

June 3rd 2023 PDT

HST 1 20580U 90037B 23153.87569684 .00004390 00000-0 23088-3 0 9991 2 20580 28.4707 3.2237 0002162 220.6290 160.5934 15.13165778619293 ISS (ZARYA) 1 25544U 98067A 23154.15920225 .00019228 00000-0 33870-3 0 9997 2 25544 51.6430 38.0807 0005578 44.0089 104.8100 15.50437369399612 CXO 1 25867U 99040B 23154.73769891 .00000616 00000-0 00000+0 0 9997 2 25867 37.7035 198.5805 9048339 260.9521 0.1123 0.37813990 24285 ...Continue Reading

[TLELIST] Current TLEs

June 2nd 2023 PDT

HST 1 20580U 90037B 23152.90585373 .00004258 00000-0 22367-3 0 9999 2 20580 28.4707 9.6754 0002230 209.0227 278.5893 15.13157782619407 ISS (ZARYA) 1 25544U 98067A 23153.42015046 .00017048 00000-0 30163-3 0 9992 2 25544 51.6420 41.7426 0005273 43.7119 297.3474 15.50405251399494 CXO 1 25867U 99040B 23154.73769891 .00000616 00000-0 00000+0 0 9997 2 25867 37.7035 198.5805 9048339 260.9521 0.1123 0.37813990 24285 ...Continue Reading
  • This mailing list is a public mailing list - anyone may join or leave, at any time.
  • This mailing list is announce-only.

International Space Station (ISS) / Hubble Space Telescope (HST) / Chandra X-Ray Observatory Orbital Data via EMAIL

Privacy Policy:

Private list